Location: *
(47.2969°N, 10.2930°E)
Time: 22:53:02
(UTC+00:00)

STARLINK-1202 - Pass Details

Date: 09 April 2020
Orbit: 549 x 550 km, 53.0° (Epoch: 29 May)

Event Time Altitude Azimuth Distance (km) Brightness Sun altitude
Rises 20:19:16 0° 297° (WNW) 2,735 8.6 -21.8°
Reaches altitude 10° 20:21:32 10° 295° (WNW) 1,837 7.3 -22.1°
Enters shadow 20:25:39 62° 216° (SW) 626 3.7 -22.6°
